Back to catalog

BREEZE-M R/B

LostHEO
NORAD 39523·ROCKET BODY·🇷🇺 Russia

Launched Feb 14, 2014 from Baikonur Cosmodrome

Loading…

Next Passes (next 24 hours)

TLE

StaleSource: Space-Track

Epoch: Aug 5, 2026, 14:38 UTC

1 39523U 14007B   26217.61023432 -.00000144  00000-0  00000+0 0  9992
2 39523  14.3704  31.9971 4640556 123.1582 290.1916  1.88487883 85865

Track BREEZE-M R/B in real time with AllMySat

Download on the App Store